| time (UTC) | temp F | wind direction | speed MPH | gust MPH | rain 1hr in | rain 24hr in | rain mn in | humidity % | barometer mb |
| 20260506002005 | 71 | 159 | 3.0 | 8.0 | 0.00 | 0.00 | 0.00 | 45 | 1011.3 |
| 20260506001516 | 71 | 218 | 3.0 | 8.0 | 0.00 | 0.00 | 0.00 | 45 | 1011.3 |
| 20260506001006 | 71 | 231 | 3.0 | 8.0 | 0.00 | 0.00 | 0.00 | 44 | 1011.5 |
| 20260506000508 | 72 | 163 | 3.0 | 8.0 | 0.00 | 0.00 | 0.00 | 44 | 1011.6 |
| 20260506000020 | 72 | 207 | 4.0 | 11.0 | 0.00 | 0.00 | 0.00 | 44 | 1011.8 |
| 20260505235508 | 72 | 196 | 2.0 | 11.0 | 0.00 | 0.00 | 0.00 | 44 | 1011.9 |
| 20260505235011 | 72 | 219 | 3.0 | 9.0 | 0.00 | 0.00 | 0.00 | 44 | 1011.8 |
| 20260505234522 | 71 | 174 | 4.0 | 9.0 | 0.00 | 0.00 | 0.00 | 44 | 1011.6 |
| 20260505234009 | 72 | 160 | 3.0 | 7.0 | 0.00 | 0.00 | 0.00 | 45 | 1011.5 |
| 20260505233507 | 72 | 180 | 3.0 | 7.0 | 0.00 | 0.00 | 0.00 | 45 | 1011.5 |
| 20260505233025 | 71 | 167 | 4.0 | 10.0 | 0.00 | 0.00 | 0.00 | 45 | 1011.5 |
| 20260505232511 | 71 | 223 | 3.0 | 10.0 | 0.00 | 0.00 | 0.00 | 45 | 1011.6 |
| 20260505232005 | 71 | 200 | 3.0 | 6.0 | 0.00 | 0.00 | 0.00 | 46 | 1011.5 |
| 20260505231518 | 71 | 186 | 3.0 | 6.0 | 0.00 | 0.00 | 0.00 | 46 | 1011.5 |
| 20260505231005 | 71 | 190 | 3.0 | 9.0 | 0.00 | 0.00 | 0.00 | 46 | 1011.4 |
| 20260505230506 | 72 | 165 | 4.0 | 9.0 | 0.00 | 0.00 | 0.00 | 44 | 1011.5 |
| 20260505230003 | 72 | 226 | 3.0 | 9.0 | 0.00 | 0.00 | 0.00 | 44 | 1011.4 |
| 20260505225504 | 72 | 160 | 4.0 | 9.0 | 0.00 | 0.00 | 0.00 | 44 | 1011.4 |
| 20260505225003 | 72 | 222 | 5.0 | 9.0 | 0.00 | 0.00 | 0.00 | 43 | 1011.5 |
| 20260505224505 | 72 | 198 | 4.0 | 10.0 | 0.00 | 0.00 | 0.00 | 43 | 1011.5 |
| 20260505224003 | 72 | 217 | 5.0 | 10.0 | 0.00 | 0.00 | 0.00 | 43 | 1011.5 |
| 20260505223503 | 72 | 212 | 5.0 | 8.0 | 0.00 | 0.00 | 0.00 | 43 | 1011.6 |
| 20260505223006 | 73 | 200 | 4.0 | 7.0 | 0.00 | 0.00 | 0.00 | 43 | 1011.7 |
| 20260505222502 | 73 | 181 | 4.0 | 7.0 | 0.00 | 0.00 | 0.00 | 43 | 1011.8 |
| 20260505222007 | 73 | 156 | 4.0 | 10.0 | 0.00 | 0.00 | 0.00 | 43 | 1011.7 |
| 20260505221513 | 73 | 200 | 6.0 | 12.0 | 0.00 | 0.00 | 0.00 | 42 | 1011.7 |
| 20260505221004 | 73 | 214 | 3.0 | 12.0 | 0.00 | 0.00 | 0.00 | 42 | 1011.6 |
| 20260505220504 | 73 | 152 | 5.0 | 12.0 | 0.00 | 0.00 | 0.00 | 42 | 1011.7 |
| 20260505220022 | 73 | 162 | 4.0 | 12.0 | 0.00 | 0.00 | 0.00 | 42 | 1011.7 |
| 20260505215507 | 73 | 154 | 4.0 | 12.0 | 0.00 | 0.00 | 0.00 | 42 | 1012.0 |
| 20260505215003 | 73 | 183 | 5.0 | 12.0 | 0.00 | 0.00 | 0.00 | 43 | 1011.9 |
| 20260505214503 | 74 | 193 | 6.0 | 11.0 | 0.00 | 0.00 | 0.00 | 43 | 1012.1 |
| 20260505214003 | 74 | 223 | 4.0 | 11.0 | 0.00 | 0.00 | 0.00 | 42 | 1012.1 |
| 20260505213502 | 74 | 167 | 4.0 | 11.0 | 0.00 | 0.00 | 0.00 | 42 | 1012.2 |
| 20260505213018 | 74 | 192 | 7.0 | 11.0 | 0.00 | 0.00 | 0.00 | 42 | 1012.2 |
| 20260505212506 | 75 | 167 | 3.0 | 7.0 | 0.00 | 0.00 | 0.00 | 41 | 1012.2 |
| 20260505212004 | 75 | 180 | 4.0 | 7.0 | 0.00 | 0.00 | 0.00 | 40 | 1012.3 |
| 20260505211508 | 75 | 243 | 4.0 | 10.0 | 0.00 | 0.00 | 0.00 | 40 | 1012.1 |
| 20260505211003 | 75 | 174 | 3.0 | 11.0 | 0.00 | 0.00 | 0.00 | 40 | 1012.1 |
| 20260505210507 | 75 | 202 | 5.0 | 11.0 | 0.00 | 0.00 | 0.00 | 39 | 1012.2 |
| 20260505210017 | 75 | 231 | 5.0 | 13.0 | 0.00 | 0.00 | 0.00 | 36 | 1012.2 |
| 20260505205504 | 76 | 183 | 7.0 | 13.0 | 0.00 | 0.00 | 0.00 | 35 | 1012.2 |
| 20260505205008 | 76 | 185 | 6.0 | 13.0 | 0.00 | 0.00 | 0.00 | 36 | 1012.2 |
| 20260505204521 | 76 | 158 | 6.0 | 15.0 | 0.00 | 0.00 | 0.00 | 36 | 1012.2 |
| 20260505204006 | 76 | 162 | 9.0 | 15.0 | 0.00 | 0.00 | 0.00 | 35 | 1012.3 |
| 20260505203503 | 76 | 169 | 7.0 | 12.0 | 0.00 | 0.00 | 0.00 | 38 | 1012.4 |
| 20260505203005 | 76 | 181 | 7.0 | 12.0 | 0.00 | 0.00 | 0.00 | 40 | 1012.3 |
| 20260505202503 | 76 | 160 | 6.0 | 16.0 | 0.00 | 0.00 | 0.00 | 43 | 1012.5 |
| 20260505202006 | 76 | 177 | 7.0 | 16.0 | 0.00 | 0.00 | 0.00 | 44 | 1012.5 |
| 20260505201510 | 76 | 197 | 5.0 | 12.0 | 0.00 | 0.00 | 0.00 | 45 | 1012.5 |
| 20260505201004 | 75 | 194 | 3.0 | 16.0 | 0.00 | 0.00 | 0.00 | 45 | 1012.7 |
| 20260505200505 | 76 | 174 | 7.0 | 16.0 | 0.00 | 0.00 | 0.00 | 44 | 1012.7 |
| 20260505200014 | 76 | 195 | 5.0 | 13.0 | 0.00 | 0.00 | 0.00 | 46 | 1012.6 |
| 20260505195505 | 75 | 173 | 8.0 | 13.0 | 0.00 | 0.00 | 0.00 | 44 | 1012.8 |
| 20260505195007 | 75 | 192 | 6.0 | 17.0 | 0.00 | 0.00 | 0.00 | 44 | 1012.8 |
| 20260505194524 | 75 | 170 | 6.0 | 17.0 | 0.00 | 0.00 | 0.00 | 43 | 1012.8 |
| 20260505194008 | 76 | 219 | 8.0 | 14.0 | 0.00 | 0.00 | 0.00 | 44 | 1012.9 |
| 20260505193509 | 76 | 160 | 6.0 | 19.0 | 0.00 | 0.00 | 0.00 | 44 | 1012.9 |
| 20260505193028 | 76 | 198 | 6.0 | 19.0 | 0.00 | 0.00 | 0.00 | 46 | 1012.9 |
| 20260505192505 | 76 | 200 | 8.0 | 15.0 | 0.00 | 0.00 | 0.00 | 42 | 1012.9 |
| 20260505192005 | 76 | 231 | 4.0 | 13.0 | 0.00 | 0.00 | 0.00 | 44 | 1012.9 |
| 20260505191520 | 76 | 172 | 8.0 | 13.0 | 0.00 | 0.00 | 0.00 | 41 | 1013.0 |
| 20260505191009 | 76 | 195 | 7.0 | 13.0 | 0.00 | 0.00 | 0.00 | 43 | 1013.0 |
| 20260505190507 | 75 | 168 | 6.0 | 13.0 | 0.00 | 0.00 | 0.00 | 48 | 1013.1 |
| 20260505190009 | 75 | 224 | 6.0 | 12.0 | 0.00 | 0.00 | 0.00 | 44 | 1013.2 |
| 20260505185510 | 75 | 192 | 5.0 | 11.0 | 0.00 | 0.00 | 0.00 | 44 | 1013.4 |
| 20260505185005 | 75 | 151 | 3.0 | 10.0 | 0.00 | 0.00 | 0.00 | 43 | 1013.3 |
| 20260505184514 | 75 | 257 | 4.0 | 11.0 | 0.00 | 0.00 | 0.00 | 45 | 1013.8 |
| 20260505184007 | 75 | 252 | 7.0 | 16.0 | 0.00 | 0.00 | 0.00 | 46 | 1014.0 |
| 20260505183508 | 74 | 179 | 8.0 | 16.0 | 0.00 | 0.00 | 0.00 | 43 | 1014.1 |
| 20260505183024 | 74 | 165 | 3.0 | 14.0 | 0.00 | 0.00 | 0.00 | 47 | 1014.2 |
| 20260505182507 | 74 | 201 | 6.0 | 14.0 | 0.00 | 0.00 | 0.00 | 46 | 1014.3 |
| 20260505182004 | 74 | 183 | 4.0 | 17.0 | 0.00 | 0.00 | 0.00 | 46 | 1014.3 |
| 20260505181527 | 74 | 173 | 9.0 | 17.0 | 0.00 | 0.00 | 0.00 | 45 | 1014.3 |
| 20260505181004 | 74 | 163 | 5.0 | 12.0 | 0.00 | 0.00 | 0.00 | 45 | 1014.3 |
| 20260505180503 | 74 | 160 | 6.0 | 12.0 | 0.00 | 0.00 | 0.00 | 46 | 1014.5 |
| 20260505180016 | 74 | 203 | 6.0 | 12.0 | 0.00 | 0.00 | 0.00 | 48 | 1014.6 |
| 20260505175504 | 74 | 217 | 2.0 | 12.0 | 0.00 | 0.00 | 0.00 | 49 | 1014.3 |
| 20260505175007 | 74 | 148 | 6.0 | 12.0 | 0.00 | 0.00 | 0.00 | 45 | 1014.5 |
| 20260505174517 | 74 | 208 | 4.0 | 13.0 | 0.00 | 0.00 | 0.00 | 47 | 1014.5 |
| 20260505174007 | 74 | 149 | 4.0 | 15.0 | 0.00 | 0.00 | 0.00 | 46 | 1014.8 |
| 20260505173507 | 74 | 188 | 8.0 | 15.0 | 0.00 | 0.00 | 0.00 | 46 | 1014.9 |
| 20260505173036 | 73 | 169 | 4.0 | 11.0 | 0.00 | 0.00 | 0.00 | 46 | 1014.8 |
| 20260505172506 | 73 | 237 | 6.0 | 11.0 | 0.00 | 0.00 | 0.00 | 47 | 1014.9 |
| 20260505172007 | 73 | 233 | 7.0 | 13.0 | 0.00 | 0.00 | 0.00 | 46 | 1015.0 |
| 20260505171538 | 73 | 148 | 5.0 | 13.0 | 0.00 | 0.00 | 0.00 | 48 | 1015.1 |
| 20260505171004 | 73 | 161 | 2.0 | 11.0 | 0.00 | 0.00 | 0.00 | 49 | 1015.1 |
| 20260505170504 | 72 | 181 | 5.0 | 11.0 | 0.00 | 0.00 | 0.00 | 48 | 1015.3 |
| 20260505170027 | 72 | 252 | 5.0 | 9.0 | 0.00 | 0.00 | 0.00 | 48 | 1015.4 |
| 20260505165506 | 72 | 210 | 4.0 | 9.0 | 0.00 | 0.00 | 0.00 | 49 | 1015.5 |
| 20260505165004 | 72 | 231 | 2.0 | 8.0 | 0.00 | 0.00 | 0.00 | 51 | 1015.6 |
| 20260505164509 | 72 | 223 | 4.0 | 10.0 | 0.00 | 0.00 | 0.00 | 51 | 1015.5 |
| 20260505164004 | 71 | 210 | 4.0 | 10.0 | 0.00 | 0.00 | 0.00 | 52 | 1015.5 |
| 20260505163504 | 71 | 231 | 5.0 | 10.0 | 0.00 | 0.00 | 0.00 | 53 | 1015.4 |
| 20260505163016 | 71 | 231 | 4.0 | 12.0 | 0.00 | 0.00 | 0.00 | 53 | 1015.2 |
| 20260505162505 | 71 | 181 | 3.0 | 12.0 | 0.00 | 0.00 | 0.00 | 53 | 1015.1 |
| 20260505162011 | 71 | 151 | 3.0 | 9.0 | 0.00 | 0.00 | 0.00 | 55 | 1015.3 |
| 20260505161522 | 70 | 150 | 6.0 | 9.0 | 0.00 | 0.00 | 0.00 | 54 | 1015.5 |
| 20260505161007 | 70 | 214 | 4.0 | 9.0 | 0.00 | 0.00 | 0.00 | 57 | 1015.5 |
| 20260505160515 | 70 | 204 | 3.0 | 10.0 | 0.00 | 0.00 | 0.00 | 56 | 1015.6 |
| 20260505153014 | 68 | 177 | 3.0 | 8.0 | 0.00 | 0.00 | 0.00 | 58 | 1015.7 |
| 20260505152508 | 68 | 240 | 4.0 | 8.0 | 0.00 | 0.00 | 0.00 | 57 | 1015.7 |
| 20260505152008 | 68 | 184 | 3.0 | 8.0 | 0.00 | 0.00 | 0.00 | 57 | 1015.6 |
| 20260505151529 | 67 | 161 | 4.0 | 8.0 | 0.00 | 0.00 | 0.00 | 59 | 1015.6 |
| 20260505151008 | 68 | 171 | 4.0 | 9.0 | 0.00 | 0.00 | 0.00 | 59 | 1015.5 |
| 20260505150510 | 67 | 155 | 4.0 | 10.0 | 0.00 | 0.00 | 0.00 | 58 | 1015.6 |
| 20260505140508 | 64 | 222 | 3.0 | 9.0 | 0.00 | 0.00 | 0.00 | 62 | 1015.6 |
| 20260505125008 | 62 | 216 | 2.0 | 7.0 | 0.00 | 0.00 | 0.00 | 61 | 1015.2 |
| 20260505124526 | 61 | 206 | 2.0 | 5.0 | 0.00 | 0.00 | 0.00 | 61 | 1015.2 |
| 20260505124009 | 61 | 191 | 3.0 | 6.0 | 0.00 | 0.00 | 0.00 | 61 | 1015.0 |
| 20260505123507 | 61 | 191 | 3.0 | 7.0 | 0.00 | 0.00 | 0.00 | 61 | 1015.0 |
| 20260505123026 | 60 | 169 | 2.0 | 8.0 | 0.00 | 0.00 | 0.00 | 62 | 1014.9 |
| 20260505122504 | 60 | 214 | 3.0 | 8.0 | 0.00 | 0.00 | 0.00 | 61 | 1014.8 |
| 20260505122008 | 60 | 229 | 2.0 | 6.0 | 0.00 | 0.00 | 0.00 | 61 | 1014.8 |
| 20260505121518 | 60 | 186 | 3.0 | 6.0 | 0.00 | 0.00 | 0.00 | 61 | 1014.9 |
| 20260505121006 | 60 | 191 | 2.0 | 8.0 | 0.00 | 0.00 | 0.00 | 61 | 1014.9 |
| 20260505120504 | 59 | 199 | 2.0 | 8.0 | 0.00 | 0.00 | 0.00 | 62 | 1014.7 |
| 20260505120048 | 59 | 203 | 3.0 | 7.0 | 0.00 | 0.00 | 0.00 | 62 | 1014.6 |
| 20260505115508 | 59 | 195 | 3.0 | 5.0 | 0.00 | 0.00 | 0.00 | 63 | 1014.6 |
| 20260505115006 | 59 | 221 | 2.0 | 8.0 | 0.00 | 0.00 | 0.00 | 63 | 1014.6 |
| 20260505114524 | 59 | 208 | 3.0 | 8.0 | 0.00 | 0.00 | 0.00 | 63 | 1014.5 |
| 20260505114008 | 58 | 193 | 3.0 | 5.0 | 0.00 | 0.00 | 0.00 | 63 | 1014.4 |
| 20260505113510 | 58 | 224 | 3.0 | 5.0 | 0.00 | 0.00 | 0.00 | 63 | 1014.3 |
| 20260505113028 | 58 | 227 | 3.0 | 5.0 | 0.00 | 0.00 | 0.00 | 62 | 1014.3 |
| 20260505112513 | 58 | 255 | 3.0 | 6.0 | 0.00 | 0.00 | 0.00 | 62 | 1014.3 |
| 20260505112013 | 58 | 209 | 3.0 | 6.0 | 0.00 | 0.00 | 0.00 | 62 | 1014.2 |
| 20260505111517 | 59 | 252 | 3.0 | 5.0 | 0.00 | 0.00 | 0.00 | 62 | 1014.1 |
| 20260505111009 | 59 | 219 | 3.0 | 5.0 | 0.00 | 0.00 | 0.00 | 61 | 1014.1 |
| 20260505110511 | 59 | 233 | 3.0 | 5.0 | 0.00 | 0.00 | 0.00 | 60 | 1014.1 |
| 20260505102006 | 59 | 229 | 2.0 | 4.0 | 0.00 | 0.00 | 0.00 | 60 | 1013.7 |
| 20260505101521 | 59 | 176 | 2.0 | 3.0 | 0.00 | 0.00 | 0.00 | 60 | 1013.6 |
| 20260505101005 | 59 | 245 | 1.0 | 4.0 | 0.00 | 0.00 | 0.00 | 60 | 1013.6 |
| 20260505100504 | 59 | 211 | 1.0 | 4.0 | 0.00 | 0.00 | 0.00 | 60 | 1013.7 |
| 20260505100022 | 59 | 205 | 1.0 | 4.0 | 0.00 | 0.00 | 0.00 | 60 | 1013.7 |
| 20260505095507 | 59 | 203 | 2.0 | 4.0 | 0.00 | 0.00 | 0.00 | 60 | 1013.7 |
| 20260505095008 | 59 | 207 | 1.0 | 4.0 | 0.00 | 0.00 | 0.00 | 60 | 1013.8 |
| 20260505094504 | 59 | 155 | 2.0 | 4.0 | 0.00 | 0.00 | 0.00 | 61 | 1013.8 |
| 20260505094002 | 58 | 206 | 1.0 | 4.0 | 0.00 | 0.00 | 0.00 | 62 | 1013.8 |
| 20260505093502 | 58 | 241 | 1.0 | 4.0 | 0.00 | 0.00 | 0.00 | 63 | 1013.7 |
| 20260505093008 | 57 | 224 | 2.0 | 3.0 | 0.00 | 0.00 | 0.00 | 64 | 1013.7 |
| 20260505092504 | 57 | 217 | 1.0 | 2.0 | 0.00 | 0.00 | 0.00 | 64 | 1013.7 |
| 20260505092004 | 57 | 246 | 1.0 | 2.0 | 0.00 | 0.00 | 0.00 | 66 | 1013.7 |
| 20260505091523 | 56 | 180 | 0.0 | 3.0 | 0.00 | 0.00 | 0.00 | 66 | 1013.8 |
| 20260505091004 | 56 | 210 | 1.0 | 3.0 | 0.00 | 0.00 | 0.00 | 67 | 1013.8 |
| 20260505090503 | 56 | 203 | 0.0 | 0.0 | 0.00 | 0.00 | 0.00 | 70 | 1013.7 |
| 20260505090034 | 56 | 203 | 0.0 | 2.0 | 0.00 | 0.00 | 0.00 | 69 | 1013.7 |
| 20260505085510 | 56 | 203 | 0.0 | 2.0 | 0.00 | 0.00 | 0.00 | 66 | 1013.7 |
| 20260505085006 | 56 | 202 | 1.0 | 2.0 | 0.00 | 0.00 | 0.00 | 67 | 1013.7 |
| 20260505084520 | 56 | 180 | 0.0 | 2.0 | 0.00 | 0.00 | 0.00 | 69 | 1013.8 |
| 20260505084007 | 57 | 180 | 0.0 | 2.0 | 0.00 | 0.00 | 0.00 | 67 | 1013.8 |
| 20260505083505 | 57 | 200 | 0.0 | 2.0 | 0.00 | 0.00 | 0.00 | 66 | 1013.8 |
| 20260505083005 | 57 | 200 | 0.0 | 2.0 | 0.00 | 0.00 | 0.00 | 65 | 1013.8 |
| 20260505082504 | 57 | 200 | 0.0 | 2.0 | 0.00 | 0.00 | 0.00 | 64 | 1013.8 |
| 20260505082004 | 58 | 204 | 0.0 | 3.0 | 0.00 | 0.00 | 0.00 | 65 | 1013.8 |
| 20260505081512 | 58 | 202 | 2.0 | 3.0 | 0.00 | 0.00 | 0.00 | 64 | 1013.9 |
| 20260505081005 | 58 | 226 | 1.0 | 3.0 | 0.00 | 0.00 | 0.00 | 64 | 1013.9 |
| 20260505080506 | 58 | 226 | 1.0 | 3.0 | 0.00 | 0.00 | 0.00 | 65 | 1014.0 |
| 20260505080014 | 58 | 231 | 1.0 | 3.0 | 0.00 | 0.00 | 0.00 | 65 | 1014.0 |
| 20260505075503 | 58 | 231 | 1.0 | 2.0 | 0.00 | 0.00 | 0.00 | 65 | 1013.9 |
| 20260505075007 | 58 | 205 | 1.0 | 2.0 | 0.00 | 0.00 | 0.00 | 65 | 1013.9 |
| 20260505074520 | 58 | 232 | 1.0 | 2.0 | 0.00 | 0.00 | 0.00 | 64 | 1013.8 |
| 20260505074007 | 58 | 220 | 1.0 | 3.0 | 0.00 | 0.00 | 0.00 | 65 | 1013.7 |
| 20260505073508 | 58 | 214 | 2.0 | 3.0 | 0.00 | 0.00 | 0.00 | 65 | 1013.8 |
| 20260505073040 | 58 | 203 | 2.0 | 3.0 | 0.00 | 0.00 | 0.00 | 65 | 1013.8 |
| 20260505072505 | 58 | 206 | 1.0 | 3.0 | 0.00 | 0.00 | 0.00 | 65 | 1013.8 |
| 20260505072003 | 58 | 206 | 1.0 | 4.0 | 0.00 | 0.00 | 0.00 | 64 | 1013.7 |
| 20260505071514 | 59 | 230 | 2.0 | 4.0 | 0.00 | 0.00 | 0.00 | 64 | 1013.8 |
| 20260505071004 | 59 | 226 | 2.0 | 3.0 | 0.00 | 0.00 | 0.00 | 64 | 1013.8 |
| 20260505070505 | 59 | 224 | 2.0 | 4.0 | 0.00 | 0.00 | 0.00 | 64 | 1013.9 |
| 20260505070009 | 59 | 224 | 2.0 | 4.0 | 0.00 | 0.00 | 0.00 | 64 | 1014.0 |
| 20260505065504 | 59 | 232 | 2.0 | 4.0 | 0.00 | 0.00 | 0.00 | 63 | 1014.0 |
| 20260505065004 | 60 | 217 | 2.0 | 4.0 | 0.00 | 0.00 | 0.00 | 63 | 1014.0 |
| 20260505064533 | 60 | 240 | 2.0 | 4.0 | 0.00 | 0.00 | 0.00 | 62 | 1013.9 |
| 20260505064007 | 60 | 241 | 2.0 | 3.0 | 0.00 | 0.00 | 0.00 | 62 | 1014.0 |
| 20260505063509 | 60 | 241 | 2.0 | 3.0 | 0.00 | 0.00 | 0.00 | 61 | 1014.0 |
| 20260505063022 | 60 | 250 | 2.0 | 3.0 | 0.00 | 0.00 | 0.00 | 62 | 1014.0 |
| 20260505062509 | 60 | 224 | 2.0 | 4.0 | 0.00 | 0.00 | 0.00 | 62 | 1014.0 |
| 20260505062011 | 60 | 210 | 2.0 | 4.0 | 0.00 | 0.00 | 0.00 | 62 | 1014.0 |
| 20260505061539 | 60 | 238 | 2.0 | 3.0 | 0.00 | 0.00 | 0.00 | 63 | 1014.0 |
| 20260505061003 | 60 | 203 | 1.0 | 3.0 | 0.00 | 0.00 | 0.00 | 63 | 1014.0 |
| 20260505060505 | 60 | 208 | 1.0 | 3.0 | 0.00 | 0.00 | 0.00 | 63 | 1014.0 |
| 20260505060007 | 60 | 228 | 1.0 | 2.0 | 0.00 | 0.00 | 0.00 | 63 | 1014.0 |
| 20260505055003 | 61 | 208 | 2.0 | 3.0 | 0.00 | 0.00 | 0.00 | 62 | 1014.0 |
| 20260505054514 | 61 | 206 | 1.0 | 3.0 | 0.00 | 0.00 | 0.00 | 62 | 1014.0 |
| 20260505054012 | 61 | 209 | 0.0 | 2.0 | 0.00 | 0.00 | 0.00 | 62 | 1014.0 |
| 20260505053508 | 61 | 223 | 1.0 | 3.0 | 0.00 | 0.00 | 0.00 | 61 | 1014.0 |
| 20260505053017 | 61 | 200 | 1.0 | 3.0 | 0.00 | 0.00 | 0.00 | 61 | 1014.0 |
| 20260505052509 | 61 | 225 | 2.0 | 4.0 | 0.00 | 0.00 | 0.00 | 61 | 1013.9 |
| 20260505052008 | 62 | 208 | 1.0 | 4.0 | 0.00 | 0.00 | 0.00 | 61 | 1014.0 |
| 20260505051522 | 62 | 213 | 1.0 | 2.0 | 0.00 | 0.00 | 0.00 | 60 | 1014.0 |
| 20260505051014 | 62 | 226 | 1.0 | 2.0 | 0.00 | 0.00 | 0.00 | 60 | 1014.0 |
| 20260505041522 | 63 | 214 | 1.0 | 3.0 | 0.00 | 0.00 | 0.00 | 61 | 1014.0 |
| 20260505041010 | 63 | 223 | 2.0 | 3.0 | 0.00 | 0.00 | 0.00 | 61 | 1014.0 |
| 20260505040510 | 62 | 216 | 0.0 | 3.0 | 0.00 | 0.00 | 0.00 | 63 | 1014.0 |
| 20260505040028 | 62 | 195 | 1.0 | 3.0 | 0.00 | 0.00 | 0.00 | 64 | 1014.0 |
| 20260505035510 | 60 | 206 | 1.0 | 2.0 | 0.00 | 0.00 | 0.00 | 67 | 1014.1 |
| 20260505035003 | 60 | 215 | 0.0 | 2.0 | 0.00 | 0.00 | 0.00 | 69 | 1014.0 |
| 20260505034511 | 60 | 204 | 0.0 | 2.0 | 0.00 | 0.00 | 0.00 | 70 | 1014.0 |
| 20260505034006 | 59 | 204 | 0.0 | 2.0 | 0.00 | 0.00 | 0.00 | 71 | 1014.0 |
| 20260505033503 | 58 | 204 | 1.0 | 2.0 | 0.00 | 0.00 | 0.00 | 73 | 1014.0 |
| 20260505033020 | 57 | 224 | 0.0 | 2.0 | 0.00 | 0.00 | 0.00 | 75 | 1013.9 |
| 20260505032505 | 57 | 224 | 0.0 | 0.0 | 0.00 | 0.00 | 0.00 | 74 | 1013.9 |
| 20260505032005 | 57 | 224 | 0.0 | 0.0 | 0.00 | 0.00 | 0.00 | 74 | 1013.9 |
| 20260505031537 | 58 | 224 | 0.0 | 0.0 | 0.00 | 0.00 | 0.00 | 73 | 1014.0 |
| 20260505031009 | 58 | 224 | 0.0 | 0.0 | 0.00 | 0.00 | 0.00 | 73 | 1014.0 |
| 20260505030506 | 58 | 224 | 0.0 | 0.0 | 0.00 | 0.00 | 0.00 | 72 | 1013.9 |
| 20260505030024 | 58 | 224 | 0.0 | 0.0 | 0.00 | 0.00 | 0.00 | 72 | 1014.0 |
| 20260505025507 | 58 | 224 | 0.0 | 0.0 | 0.00 | 0.00 | 0.00 | 71 | 1014.1 |
| 20260505025014 | 58 | 224 | 0.0 | 0.0 | 0.00 | 0.00 | 0.00 | 71 | 1014.0 |
| 20260505024533 | 58 | 224 | 0.0 | 2.0 | 0.00 | 0.00 | 0.00 | 71 | 1014.1 |
| 20260505024007 | 58 | 224 | 0.0 | 2.0 | 0.00 | 0.00 | 0.00 | 70 | 1014.1 |
| 20260505023503 | 59 | 224 | 0.0 | 2.0 | 0.00 | 0.00 | 0.00 | 70 | 1014.1 |
| 20260505023015 | 59 | 224 | 0.0 | 0.0 | 0.00 | 0.00 | 0.00 | 70 | 1014.1 |
| 20260505022503 | 59 | 224 | 0.0 | 0.0 | 0.00 | 0.00 | 0.00 | 69 | 1014.0 |
| 20260505022007 | 59 | 224 | 0.0 | 0.0 | 0.00 | 0.00 | 0.00 | 68 | 1014.0 |
| 20260505021520 | 60 | 224 | 0.0 | 0.0 | 0.00 | 0.00 | 0.00 | 67 | 1014.0 |
| 20260505021011 | 60 | 224 | 0.0 | 0.0 | 0.00 | 0.00 | 0.00 | 66 | 1013.9 |
| 20260505020508 | 60 | 224 | 0.0 | 0.0 | 0.00 | 0.00 | 0.00 | 65 | 1014.0 |
| 20260505020028 | 61 | 224 | 0.0 | 0.0 | 0.00 | 0.00 | 0.00 | 65 | 1013.9 |
| 20260505015513 | 61 | 224 | 0.0 | 0.0 | 0.00 | 0.00 | 0.00 | 64 | 1013.8 |
| 20260505015007 | 61 | 224 | 0.0 | 0.0 | 0.00 | 0.00 | 0.00 | 63 | 1013.7 |
| 20260505014529 | 62 | 224 | 0.0 | 0.0 | 0.00 | 0.00 | 0.00 | 62 | 1013.8 |
| 20260505014015 | 62 | 224 | 0.0 | 0.0 | 0.00 | 0.00 | 0.00 | 61 | 1013.7 |
| 20260505013514 | 63 | 224 | 0.0 | 0.0 | 0.00 | 0.00 | 0.00 | 60 | 1013.7 |
| 20260505013025 | 63 | 224 | 0.0 | 0.0 | 0.00 | 0.00 | 0.00 | 58 | 1013.6 |
| 20260505012503 | 64 | 224 | 0.0 | 0.0 | 0.00 | 0.00 | 0.00 | 57 | 1013.6 |
| 20260505012007 | 64 | 224 | 0.0 | 0.0 | 0.00 | 0.00 | 0.00 | 56 | 1013.6 |
| 20260505011529 | 64 | 224 | 0.0 | 0.0 | 0.00 | 0.00 | 0.00 | 55 | 1013.6 |
| 20260505011006 | 65 | 224 | 0.0 | 0.0 | 0.00 | 0.00 | 0.00 | 56 | 1013.6 |
| 20260505010508 | 66 | 224 | 0.0 | 0.0 | 0.00 | 0.00 | 0.00 | 55 | 1013.6 |
| 20260505010022 | 66 | 224 | 0.0 | 0.0 | 0.00 | 0.00 | 0.00 | 54 | 1013.6 |
| 20260505005507 | 67 | 224 | 0.0 | 0.0 | 0.00 | 0.00 | 0.00 | 52 | 1013.6 |
| 20260505005008 | 67 | 224 | 0.0 | 1.0 | 0.00 | 0.00 | 0.00 | 51 | 1013.5 |
| 20260505004542 | 68 | 224 | 0.0 | 1.0 | 0.00 | 0.00 | 0.00 | 52 | 1013.5 |
| 20260505004007 | 69 | 224 | 0.0 | 2.0 | 0.00 | 0.00 | 0.00 | 49 | 1013.5 |
| 20260505003509 | 70 | 224 | 0.0 | 2.0 | 0.00 | 0.00 | 0.00 | 48 | 1013.5 |
| 20260505003023 | 70 | 224 | 0.0 | 2.0 | 0.00 | 0.00 | 0.00 | 46 | 1013.4 |
| 20260505002509 | 70 | 212 | 1.0 | 4.0 | 0.00 | 0.00 | 0.00 | 44 | 1013.4 |